When you browse on this site, cookies collect data to enhance your experience and personalize the content and advertising you see.
Visit our Privacy Policy to learn more. By continuing to use the site, you agree to this use of cookies and data.
  • In United Kingdom
  • List of Countries
  • For 7 days
  • Water Temperature
  • Weather Map
  • Weather Widgets
  • user-avatar
    Login

    Hourly Weather Newport

    Today, 1 April, Wednesday

    Time Temperature Precipitation Wind Pressure Humidity
    00:00 +1°C° 0 mm 3 mps 770 mmHg 91%
    01:00 +1°C° 0 mm 3 mps 770 mmHg 91%
    02:00 +1°C° 0 mm 3 mps 769 mmHg 92%
    03:00 +1°C° 0 mm 3 mps 769 mmHg 92%
    04:00 +2°C° 0 mm 3 mps 769 mmHg 91%
    05:00 +3°C° 0 mm 2 mps 769 mmHg 90%
    06:00 +3°C° 0 mm 2 mps 768 mmHg 88%
    07:00 +4°C° 0 mm 2 mps 768 mmHg 82%
    08:00 +6°C° 0 mm 2 mps 768 mmHg 75%
    09:00 +7°C° 0 mm 3 mps 768 mmHg 68%
    10:00 +7°C° 0 mm 3 mps 768 mmHg 67%
    11:00 +8°C° 0 mm 3 mps 767 mmHg 65%
    12:00 +8°C° 0 mm 3 mps 767 mmHg 64%
    13:00 +8°C° 0 mm 3 mps 767 mmHg 65%
    14:00 +8°C° 0 mm 4 mps 766 mmHg 67%
    15:00 +8°C° 0 mm 4 mps 766 mmHg 69%
    16:00 +7°C° 0 mm 5 mps 766 mmHg 70%
    17:00 +6°C° 0 mm 5 mps 766 mmHg 72%
    18:00 +6°C° 0 mm 5 mps 765 mmHg 74%
    19:00 +5°C° 0 mm 5 mps 765 mmHg 78%
    20:00 +4°C° 0 mm 4 mps 765 mmHg 83%
    21:00 +3°C° 0 mm 4 mps 765 mmHg 87%
    22:00 +2°C° 0 mm 3 mps 765 mmHg 88%
    23:00 +2°C° 0 mm 3 mps 765 mmHg 90%

    Tomorrow, 2 April, Thursday

    Time Temperature Precipitation Wind Pressure Humidity
    00:00 +2°C° 0 mm 3 mps 765 mmHg 92%
    01:00 +2°C° 0 mm 3 mps 765 mmHg 92%
    02:00 +3°C° 0 mm 3 mps 764 mmHg 92%
    03:00 +3°C° 0 mm 3 mps 764 mmHg 92%
    04:00 +3°C° 0 mm 3 mps 764 mmHg 93%
    05:00 +3°C° 0 mm 3 mps 764 mmHg 93%
    06:00 +3°C° 0 mm 3 mps 763 mmHg 94%
    07:00 +4°C° 0 mm 3 mps 763 mmHg 90%
    08:00 +5°C° 0 mm 3 mps 763 mmHg 87%
    09:00 +8°C° 0 mm 3 mps 763 mmHg 84%
    10:00 +7°C° 0.1 mm 4 mps 763 mmHg 83%
    11:00 +8°C° 0.1 mm 5 mps 762 mmHg 82%
    12:00 +8°C° 0.1 mm 6 mps 762 mmHg 80%
    13:00 +8°C° 0.1 mm 6 mps 762 mmHg 80%
    14:00 +8°C° 0.1 mm 6 mps 762 mmHg 80%
    15:00 +8°C° 0.1 mm 7 mps 761 mmHg 80%
    16:00 +8°C° 0.1 mm 6 mps 761 mmHg 82%
    17:00 +8°C° 0.1 mm 6 mps 761 mmHg 85%
    18:00 +7°C° 0.1 mm 5 mps 761 mmHg 87%
    19:00 +7°C° 0 mm 5 mps 761 mmHg 89%
    20:00 +6°C° 0 mm 4 mps 761 mmHg 90%
    21:00 +6°C° 0 mm 4 mps 761 mmHg 92%
    22:00 +5°C° 0 mm 4 mps 761 mmHg 93%
    23:00 +5°C° 0 mm 4 mps 761 mmHg 94%

    Day after tomorrow, 3 April, Friday

    Time Temperature Precipitation Wind Pressure Humidity
    00:00 +5°C° 0 mm 4 mps 761 mmHg 95%
    01:00 +5°C° 0.1 mm 3 mps 761 mmHg 95%
    02:00 +5°C° 0.1 mm 3 mps 761 mmHg 96%
    03:00 +4°C° 0.1 mm 3 mps 761 mmHg 96%
    04:00 +4°C° 0 mm 3 mps 761 mmHg 96%
    05:00 +4°C° 0 mm 3 mps 761 mmHg 96%
    06:00 +4°C° 0 mm 3 mps 761 mmHg 96%
    07:00 +5°C° 0 mm 4 mps 761 mmHg 90%
    08:00 +6°C° 0 mm 4 mps 761 mmHg 84%
    09:00 +7°C° 0 mm 4 mps 761 mmHg 78%
    10:00 +8°C° 0 mm 4 mps 762 mmHg 75%
    11:00 +8°C° 0 mm 4 mps 762 mmHg 72%
    12:00 +10°C° 0 mm 4 mps 762 mmHg 69%
    13:00 +10°C° 0 mm 4 mps 762 mmHg 68%
    14:00 +10°C° 0 mm 4 mps 762 mmHg 67%
    15:00 +11°C° 0 mm 4 mps 762 mmHg 66%
    16:00 +10°C° 0 mm 3 mps 762 mmHg 71%
    17:00 +9°C° 0 mm 3 mps 762 mmHg 77%
    18:00 +8°C° 0 mm 2 mps 762 mmHg 82%
    19:00 +7°C° 0 mm 2 mps 762 mmHg 85%
    20:00 +7°C° 0 mm 1 mps 762 mmHg 88%
    21:00 +5°C° 0 mm 0 mps 762 mmHg 91%
    22:00 +5°C° 0 mm 1 mps 763 mmHg 91%
    23:00 +5°C° 0 mm 1 mps 763 mmHg 91%

    4 April, Saturday

    Time Temperature Precipitation Wind Pressure Humidity
    00:00 +5°C° 0 mm 1 mps 763 mmHg 91%
    01:00 +4°C° 0 mm 2 mps 763 mmHg 91%
    02:00 +4°C° 0 mm 2 mps 762 mmHg 91%
    03:00 +2°C° 0 mm 3 mps 762 mmHg 91%
    04:00 +3°C° 0 mm 3 mps 762 mmHg 91%
    05:00 +3°C° 0 mm 4 mps 762 mmHg 91%
    06:00 +3°C° 0 mm 4 mps 762 mmHg 91%
    07:00 +4°C° 0 mm 4 mps 762 mmHg 88%
    08:00 +6°C° 0 mm 5 mps 762 mmHg 85%
    09:00 +7°C° 0 mm 5 mps 762 mmHg 82%
    10:00 +8°C° 0 mm 6 mps 761 mmHg 78%
    11:00 +9°C° 0 mm 6 mps 761 mmHg 74%
    12:00 +10°C° 0 mm 7 mps 761 mmHg 70%
    13:00 +10°C° 0 mm 7 mps 761 mmHg 70%
    14:00 +10°C° 0 mm 7 mps 760 mmHg 70%
    15:00 +10°C° 0 mm 7 mps 760 mmHg 70%
    16:00 +10°C° 0 mm 7 mps 760 mmHg 72%
    17:00 +9°C° 0 mm 7 mps 759 mmHg 75%
    18:00 +8°C° 0 mm 6 mps 759 mmHg 77%
    19:00 +8°C° 0 mm 7 mps 759 mmHg 81%
    20:00 +6°C° 0 mm 7 mps 759 mmHg 85%
    21:00 +5°C° 0 mm 7 mps 759 mmHg 89%
    22:00 +5°C° 0 mm 7 mps 759 mmHg 90%
    23:00 +5°C° 0 mm 7 mps 759 mmHg 91%

    5 April, Sunday

    Time Temperature Precipitation Wind Pressure Humidity
    00:00 +5°C° 0 mm 6 mps 758 mmHg 92%
    01:00 +5°C° 0 mm 6 mps 758 mmHg 92%
    02:00 +5°C° 0 mm 6 mps 757 mmHg 93%
    03:00 +5°C° 0 mm 6 mps 756 mmHg 93%
    04:00 +5°C° 0 mm 6 mps 756 mmHg 94%
    05:00 +5°C° 0 mm 6 mps 756 mmHg 94%
    06:00 +5°C° 0 mm 7 mps 755 mmHg 95%
    07:00 +6°C° 0 mm 7 mps 755 mmHg 90%
    08:00 +9°C° 0 mm 8 mps 754 mmHg 85%
    09:00 +10°C° 0 mm 8 mps 754 mmHg 80%
    10:00 +12°C° 0 mm 9 mps 754 mmHg 76%
    11:00 +13°C° 0 mm 9 mps 753 mmHg 72%
    12:00 +14°C° 0 mm 10 mps 753 mmHg 68%
    13:00 +14°C° 0 mm 10 mps 752 mmHg 70%
    14:00 +15°C° 0 mm 9 mps 752 mmHg 73%
    15:00 +13°C° 0 mm 9 mps 751 mmHg 75%
    16:00 +13°C° 0 mm 9 mps 751 mmHg 77%
    17:00 +12°C° 0 mm 9 mps 751 mmHg 80%
    18:00 +12°C° 0 mm 8 mps 751 mmHg 82%
    19:00 +11°C° 0 mm 8 mps 751 mmHg 82%
    20:00 +11°C° 0 mm 8 mps 750 mmHg 82%
    21:00 +10°C° 0 mm 8 mps 750 mmHg 82%
    22:00 +10°C° 0 mm 8 mps 750 mmHg 83%
    23:00 +10°C° 0 mm 8 mps 750 mmHg 84%

    6 April, Monday

    Time Temperature Precipitation Wind Pressure Humidity
    00:00 +10°C° 0 mm 8 mps 749 mmHg 85%
    01:00 +10°C° 0.2 mm 8 mps 749 mmHg 88%
    02:00 +11°C° 0.2 mm 8 mps 749 mmHg 91%
    03:00 +11°C° 0.2 mm 8 mps 748 mmHg 94%
    04:00 +11°C° 0 mm 8 mps 749 mmHg 93%
    05:00 +10°C° 0 mm 7 mps 749 mmHg 92%
    06:00 +10°C° 0 mm 7 mps 749 mmHg 91%
    07:00 +10°C° 0 mm 8 mps 749 mmHg 89%
    08:00 +10°C° 0 mm 8 mps 749 mmHg 88%
    09:00 +11°C° 0 mm 8 mps 749 mmHg 86%
    10:00 +11°C° 0.1 mm 8 mps 750 mmHg 84%
    11:00 +11°C° 0.1 mm 8 mps 750 mmHg 83%
    12:00 +11°C° 0.1 mm 8 mps 751 mmHg 81%
    13:00 +11°C° 0.1 mm 7 mps 751 mmHg 81%
    14:00 +11°C° 0.1 mm 7 mps 752 mmHg 81%
    15:00 +10°C° 0.1 mm 6 mps 752 mmHg 82%
    16:00 +10°C° 0.1 mm 6 mps 753 mmHg 83%
    17:00 +10°C° 0.1 mm 5 mps 753 mmHg 84%
    18:00 +9°C° 0.1 mm 5 mps 754 mmHg 85%
    19:00 +9°C° 0.1 mm 5 mps 755 mmHg 86%
    20:00 +9°C° 0.1 mm 5 mps 756 mmHg 88%
    21:00 +8°C° 0.1 mm 5 mps 756 mmHg 89%
    22:00 +8°C° 0 mm 5 mps 757 mmHg 90%
    23:00 +8°C° 0 mm 5 mps 757 mmHg 91%
    Show more